PEGASUS DEB, 24051

Orbit data source: Space-Track

PEGASUS DEB, 24051 is space debris in LEO originally from a launch on Thu, 19 May 1994 UTC launched from the Air Force Western Test Range (AFWTR). Debris objects in space refer to the collection of defunct objects orbiting the Earth. Examples of debris include non-operational satellites, rocket bodies, and fragments generated from explosions, collisions, or faulty payload assembly.

Loading next visibility...
Identifier
24051, 1994-029CY
Orbit
LEO
Country
Flag of USUS
Related business
Manufacturer
Unknown
Mission
Spacecraft
Bus & Motor
Unknown
Mass
Unknown
Launch date (UTC)
1994-05-19 (32 years ago)
Launch vehicle
Unknown
Launch site
Air Force Western Test Range (AFWTR)
Object type
Payload
Rocket body
Debris
Shape & HBR
Unknown shape, 0.1 m
Radar Cross Section
Medium (>0.1 m² and <1 m²)

Expand to show TLE details & history
Last TLE update: 3 days ago

TLE from 3 days ago
0 PEGASUS DEB
1 24051U 94029CY  26171.04996890  .00006069  00000-0  11758-2 0  9993
2 24051  81.2894  34.4099 0334651 141.1224  13.6599 14.33081197517106
Epoch: 2026-06-20T01:11Z
TLE epoch observation values (Epoch: 2026-06-20T01:11:57.312Z)
Latitude
24.00347°
Longitude
-75.73948°
Altitude
551.97 km
Speed
7.71 km/s
True Right ascension
14h 02m 04s
True Declination
23° 52' 20"
Sunlit
Object was in daylight at epoch
Visualization orbit readout
Latitude
Unknown
Longitude
Unknown
Altitude
Unknown
Speed
Unknown
Apparent Right ascension
Unknown
Apparent Declination
Unknown
Sunlit
N/A
Visualization observer readout
Local Sidereal Time
02:14:49
Azimuth
Unknown
Elevation
Unknown
Doppler factor
Unknown
Orbital elements
Apogee altitude
1,018.087 km
Perigee altitude
539.086 km
Semi-major axis
7,156.723 km
Eccentricity
0.03347
Inclination
81.2894°
RAAN
34.4099°
Arg. of periapsis
141.1224°
True anomaly
14.60378°
Mean anomaly
13.6599°
Eccentric anomaly
14.12792°
Mean motion
3.58486 °/min
Orbital period
100.42 mins
BSTAR
0.0011758
Loading maneuver chart data...
Computing Atmospheric mass density...

Documentation

Showing up to 5 results
|